Retour au catalogue

ONEWEB-0048

ActifCommunicationsPO
NORAD 45153·PAYLOAD·🇬🇧 United Kingdom

Lancé Feb 6, 2020 depuis Baikonur Cosmodrome

Loading…

Prochains Passages (prochaines 24 heures)

TLE

FraisSource: CelesTrak SupGP

Époque: Sep 14, 2026, 13:39 UTC

1 45153C 20008Y   26257.56927498 -.00000505  00000+0 -14494-2 0  2572
2 45153  87.8904  18.4875 0001867  98.2787 312.0241 13.10372905    17

Suivez ONEWEB-0048 en temps réel avec AllMySat

Download on the App Store